Back to catalog

IMPUL'S-1

AliveAmateur RadioSSO
NORAD 57173·PAYLOAD·🇷🇺 Russia
This satellite name has not been confirmed by official sources yet.

Launched Jun 27, 2023 from Vostochny Cosmodrome

Loading…

Next Passes (next 24 hours)

TLE

FreshSource: Space-Track

Epoch: Sep 14, 2026, 14:46 UTC

1 57173U 23091H   26257.61566991  .00009073  00000-0  31159-3 0  9994
2 57173  97.4955 321.5986 0010201 149.9482 210.2346 15.30311896177975

Track IMPUL'S-1 in real time with AllMySat

Download on the App Store